period_start,C,m1,H,J0,J1,J2,J3,J4,J5,JA,JB,JC,JD,JJ,JK,JN,#
2017-02-20 00:00:56,0.40,11.50,0.00,23.26,26.27,30.09,14.58,52.01,1018.08,2028.89,1151.20,1305.16,1483.01,600.07,596.41,21.56,0000 0000 0000 0000 000000
2017-02-20 00:05:57,0.42,11.52,0.00,23.19,26.27,30.13,14.56,51.92,1018.09,2028.89,1149.30,1303.66,1481.30,600.11,596.62,21.61,0000 0000 0000 0000 000000
2017-02-20 00:10:58,0.39,11.54,0.00,23.25,26.26,30.12,14.53,51.91,1018.09,2028.90,1147.44,1302.26,1479.62,599.74,596.20,21.66,0000 0000 0000 0000 000000
2017-02-20 00:15:59,0.43,11.56,0.00,23.33,26.25,30.10,14.68,51.89,1018.11,2028.92,1145.54,1300.73,1477.89,600.44,596.67,21.71,0000 0000 0000 0000 000000
2017-02-20 00:21:01,0.40,11.58,0.00,23.29,26.25,30.06,14.55,51.92,1018.31,2028.88,1143.63,1299.28,1476.21,599.78,596.27,21.76,0000 0000 0000 0000 000000
2017-02-20 00:26:02,0.42,11.61,0.00,23.25,26.26,30.07,14.54,52.02,1018.44,2028.92,1141.74,1297.82,1474.58,599.98,596.49,21.81,0000 0000 0000 0000 000000
2017-02-20 00:31:04,0.41,11.63,0.00,23.17,26.25,30.10,14.60,52.01,1018.53,2028.92,1139.85,1296.43,1472.86,599.87,596.70,21.86,0000 0000 0000 0000 000000
2017-02-20 00:36:05,0.40,11.65,0.00,23.21,26.25,30.13,14.60,51.94,1018.56,2028.90,1137.92,1294.92,1471.33,600.19,596.93,21.91,0000 0000 0000 0000 000000
2017-02-20 00:41:06,0.41,11.67,0.00,23.25,26.25,30.12,14.54,51.98,1018.57,2028.92,1136.10,1293.52,1469.71,599.66,596.54,21.96,0000 0000 0000 0000 000000
2017-02-20 00:46:07,0.38,11.69,0.00,23.33,26.25,30.07,14.63,52.14,1018.57,2028.81,1134.20,1292.03,1468.06,600.30,596.85,22.01,0000 0000 0000 0000 000000
2017-02-20 00:51:09,0.41,11.71,0.00,23.33,26.25,30.04,14.50,51.92,1018.57,2028.75,1132.35,1290.61,1466.40,599.79,596.25,22.06,0000 0000 0000 0000 000000
2017-02-20 00:56:10,0.42,11.73,0.00,23.31,26.25,30.05,14.62,52.13,1018.57,2028.80,1130.51,1289.18,1464.74,600.08,596.53,22.11,0000 0000 0000 0000 000000
2017-02-20 01:01:11,0.39,11.75,0.00,23.30,26.26,30.10,14.49,52.03,1018.59,2028.67,1128.66,1287.71,1463.11,599.83,596.46,22.16,0000 0000 0000 0000 000000
2017-02-20 01:06:12,0.35,11.77,0.00,23.40,26.27,30.08,14.59,52.07,1018.58,2028.44,1126.91,1286.38,1461.51,600.00,596.39,22.21,0000 0000 0000 0000 000000
2017-02-20 01:11:14,0.43,11.79,0.00,23.38,26.27,30.07,14.55,52.08,1018.59,2028.72,1125.21,1284.99,1459.92,599.71,596.17,22.26,0000 0000 0000 0000 000000
2017-02-20 01:16:15,0.38,11.81,0.00,23.36,26.27,30.07,14.59,52.00,1018.58,2028.57,1123.45,1283.65,1458.37,600.10,596.48,22.31,0000 0000 0000 0000 000000
2017-02-20 01:21:17,0.38,11.83,0.00,23.32,26.28,30.08,14.53,51.98,1018.61,2028.39,1121.68,1282.26,1456.73,599.93,596.58,22.36,0000 0000 0000 0000 000000
2017-02-20 01:26:18,0.38,11.85,0.00,23.40,26.29,30.11,14.57,52.03,1018.62,2028.56,1119.91,1280.89,1455.10,600.14,596.46,22.41,0000 0000 0000 0000 000000
2017-02-20 01:31:19,0.41,11.87,0.00,23.41,26.30,30.07,14.59,51.98,1018.65,2028.46,1118.05,1279.51,1453.50,599.94,596.41,22.46,0000 0000 0000 0000 000000
2017-02-20 01:36:20,0.38,11.89,0.00,23.46,26.30,30.09,14.54,51.93,1018.93,2028.41,1116.16,1278.21,1451.84,599.74,596.26,22.51,0000 0000 0000 0000 000000
2017-02-20 01:41:21,0.42,11.91,0.00,23.41,26.30,30.09,14.61,52.05,1018.96,2028.19,1114.23,1276.70,1450.22,600.11,596.53,22.56,0000 0000 0000 0000 000000
2017-02-20 01:46:22,0.42,11.93,0.00,23.44,26.30,30.12,14.59,52.20,1019.00,2028.19,1112.34,1275.32,1448.58,599.98,596.53,22.61,0000 0000 0000 0000 000000
2017-02-20 01:51:24,0.39,11.95,0.00,23.39,26.30,30.08,14.56,52.07,1019.04,2028.12,1110.61,1273.86,1446.93,600.20,596.92,22.66,0000 0000 0000 0000 000000
2017-02-20 01:56:25,0.41,11.97,0.00,23.45,26.31,30.07,14.58,52.13,1019.06,2028.09,1108.79,1272.53,1445.32,599.84,596.46,22.71,0000 0000 0000 0000 000000
2017-02-20 02:01:26,0.42,11.99,0.00,23.42,26.32,30.08,14.65,52.23,1019.06,2028.07,1106.89,1271.08,1443.64,600.07,596.66,22.76,0000 0000 0000 0000 000000
2017-02-20 02:06:28,0.42,12.01,0.00,23.44,26.32,30.12,14.57,52.16,1019.06,2028.09,1105.04,1269.64,1442.00,599.78,596.42,22.81,0000 0000 0000 0000 000000
2017-02-20 02:11:29,0.38,12.03,0.00,23.43,26.32,30.09,14.58,52.34,1019.05,2028.05,1103.30,1268.27,1440.40,599.98,596.57,22.86,0000 0000 0000 0000 000000
2017-02-20 02:16:30,0.45,12.05,0.00,23.49,26.32,30.09,14.59,52.47,1019.06,2028.02,1101.45,1266.78,1438.73,600.01,596.57,22.91,0000 0000 0000 0000 000000
2017-02-20 02:21:31,0.40,12.07,0.00,23.45,26.32,30.12,14.56,52.31,1019.06,2028.04,1099.64,1265.49,1437.12,599.62,596.28,22.96,0000 0000 0000 0000 000000
2017-02-20 02:26:32,0.41,12.09,0.00,23.48,26.32,30.11,14.53,52.19,1019.06,2028.03,1097.76,1264.12,1435.55,599.89,596.44,23.01,0000 0000 0000 0000 000000
2017-02-20 02:31:34,0.44,12.11,0.00,23.49,26.32,30.05,14.64,52.17,1019.06,2028.02,1095.90,1262.70,1433.93,600.20,596.69,23.06,0000 0000 0000 0000 000000
2017-02-20 02:36:35,0.42,12.14,0.00,23.51,26.33,30.06,14.58,52.02,1019.07,2028.01,1093.94,1261.23,1432.16,600.08,596.55,23.11,0000 0000 0000 0000 000000
2017-02-20 02:41:36,0.41,12.16,0.00,23.46,26.33,30.07,14.59,52.23,1019.08,2028.00,1092.16,1259.82,1430.53,600.00,596.63,23.16,0000 0000 0000 0000 000000
2017-02-20 02:46:38,0.42,12.18,0.00,23.51,26.33,30.09,14.62,52.17,1019.10,2028.01,1090.41,1258.42,1428.85,600.32,596.85,23.21,0000 0000 0000 0000 000000
2017-02-20 02:51:39,0.37,12.20,0.00,23.46,26.34,30.06,14.53,52.25,1019.22,2028.00,1088.80,1257.06,1427.31,599.61,596.22,23.26,0000 0000 0000 0000 000000
2017-02-20 02:56:40,0.38,12.22,0.00,23.53,26.34,30.07,14.60,52.23,1019.38,2028.00,1087.34,1255.77,1425.76,600.02,596.52,23.31,0000 0000 0000 0000 000000
2017-02-20 03:01:41,0.38,12.24,0.00,23.51,26.34,30.06,14.58,52.33,1019.38,2028.00,1085.80,1254.43,1424.31,599.62,596.33,23.36,0000 0000 0000 0000 000000
2017-02-20 03:06:43,0.36,12.26,0.00,23.53,26.34,30.06,14.58,52.29,1019.46,2028.00,1084.12,1253.19,1422.80,599.91,596.55,23.41,0000 0000 0000 0000 000000
2017-02-20 03:11:44,0.43,12.28,0.00,23.62,26.34,30.08,14.59,52.19,1019.53,2028.00,1082.30,1251.85,1421.31,599.74,596.33,23.46,0000 0000 0000 0000 000000
2017-02-20 03:16:46,0.42,12.30,0.00,23.64,26.35,30.06,14.56,52.23,1019.55,2028.01,1080.54,1250.52,1419.76,599.72,596.27,23.51,0000 0000 0000 0000 000000
2017-02-20 03:21:47,0.30,12.32,0.00,23.64,26.35,30.05,14.55,52.13,1019.55,2028.00,1079.13,1249.33,1418.39,599.69,596.16,23.56,0000 0000 0000 0000 000000
2017-02-20 03:26:48,0.34,12.33,0.00,23.58,26.35,30.07,14.55,52.17,1019.55,2028.00,1077.76,1248.25,1417.10,599.94,596.62,23.61,0000 0000 0000 0000 000000
2017-02-20 03:31:49,0.30,12.35,0.00,23.66,26.35,30.08,14.63,52.13,1019.55,2028.00,1076.51,1247.22,1415.88,600.11,596.63,23.66,0000 0000 0000 0000 000000
2017-02-20 03:36:51,0.30,12.37,0.00,23.61,26.35,30.05,14.55,52.08,1019.55,2027.99,1075.22,1246.19,1414.69,599.62,596.16,23.71,0000 0000 0000 0000 000000
2017-02-20 03:41:52,0.28,12.38,0.00,23.62,26.35,30.06,14.63,52.17,1019.57,2027.99,1074.08,1245.24,1413.64,600.51,597.03,23.76,0000 0000 0000 0000 000000
2017-02-20 03:46:54,0.36,12.39,0.00,23.62,26.35,30.08,14.56,52.23,1019.64,2027.99,1072.60,1244.15,1412.40,600.12,596.69,23.81,0000 0000 0000 0000 000000
2017-02-20 03:51:55,0.26,12.41,0.00,23.68,26.35,30.07,14.55,52.10,1019.90,2027.99,1071.61,1243.23,1411.30,600.02,596.69,23.86,0000 0000 0000 0000 000000
2017-02-20 03:56:57,0.26,12.42,0.00,23.69,26.35,30.04,14.63,52.09,1019.97,2027.98,1070.55,1242.36,1410.25,600.27,596.83,23.91,0000 0000 0000 0000 000000
2017-02-20 04:01:58,0.27,12.44,0.00,23.67,26.35,30.08,14.55,52.12,1020.03,2027.98,1069.39,1241.48,1409.23,599.85,596.49,23.96,0000 0000 0000 0000 000000
2017-02-20 04:07:00,0.30,12.45,0.00,23.70,26.35,30.10,14.51,52.22,1020.03,2027.96,1067.94,1240.49,1408.18,600.10,596.69,24.02,0000 0000 0000 0000 000000
2017-02-20 04:12:01,0.33,12.47,0.00,23.78,26.35,30.09,14.50,52.08,1020.03,2027.94,1066.58,1239.55,1407.02,599.98,596.43,24.07,0000 0000 0000 0000 000000
2017-02-20 04:17:02,0.35,12.49,0.00,23.79,26.35,30.08,14.56,52.15,1020.03,2027.95,1065.07,1238.32,1405.68,599.98,596.48,24.12,0000 0000 0000 0000 000000
2017-02-20 04:22:03,0.43,12.51,0.00,23.75,26.35,30.08,14.55,52.14,1020.03,2027.96,1063.34,1236.86,1404.00,599.97,596.50,24.17,0000 0000 0000 0000 000000
2017-02-20 04:27:05,0.55,12.53,0.00,23.78,26.35,30.07,14.58,52.26,1020.04,2027.96,1061.36,1235.20,1402.16,600.11,596.43,24.22,0000 0000 0000 0000 000000
2017-02-20 04:32:06,0.51,12.56,0.00,23.80,26.35,30.03,14.53,52.11,1020.04,2027.95,1059.19,1233.36,1400.10,600.01,596.35,24.27,0000 0000 0000 0000 000000
2017-02-20 04:37:07,0.45,12.58,0.00,23.76,26.35,30.03,14.55,52.25,1020.04,2027.95,1057.30,1231.76,1398.35,600.29,596.73,24.32,0000 0000 0000 0000 000000
2017-02-20 04:42:08,0.43,12.60,0.00,23.79,26.35,30.05,14.54,52.28,1020.04,2027.89,1055.52,1230.37,1396.66,600.10,596.71,24.37,0000 0000 0000 0000 000000
2017-02-20 04:47:09,0.43,12.63,0.00,23.77,26.35,30.05,14.68,52.29,1020.04,2027.92,1053.74,1228.92,1395.06,600.45,596.83,24.42,0000 0000 0000 0000 000000
2017-02-20 04:52:10,0.37,12.65,0.00,23.77,26.35,30.05,14.53,52.23,1020.04,2027.91,1052.19,1227.70,1393.70,599.93,596.46,24.47,0000 0000 0000 0000 000000
2017-02-20 04:57:12,0.35,12.66,0.00,23.78,26.35,30.03,14.55,52.03,1020.04,2027.86,1050.77,1226.58,1392.39,600.11,596.54,24.52,0000 0000 0000 0000 000000
2017-02-20 05:02:13,0.30,12.68,0.00,23.73,26.35,30.04,14.51,52.08,1020.04,2027.79,1049.52,1225.50,1391.18,599.77,596.34,24.57,0000 0000 0000 0000 000000
2017-02-20 05:07:14,0.27,12.69,0.00,23.78,26.35,30.04,14.57,52.02,1020.05,2027.81,1048.39,1224.59,1390.02,600.12,596.56,24.62,0000 0000 0000 0000 000000
2017-02-20 05:12:16,0.25,12.71,0.00,23.81,26.35,30.02,14.41,52.00,1020.08,2027.76,1047.24,1223.70,1389.02,599.71,596.11,24.67,0000 0000 0000 0000 000000
2017-02-20 05:17:17,0.19,12.72,0.00,23.70,26.35,30.06,14.57,52.17,1020.33,2027.57,1046.11,1222.85,1388.05,600.13,596.97,24.72,0000 0000 0000 0000 000000
2017-02-20 05:22:19,0.25,12.73,0.00,23.44,26.33,29.99,14.59,52.17,1020.41,2027.39,1045.06,1222.04,1387.10,599.96,597.17,24.77,0000 0000 0000 0000 000000
2017-02-20 05:27:20,0.28,12.75,0.00,23.40,26.32,29.99,14.64,52.14,1020.46,2027.45,1044.04,1221.26,1386.23,600.06,597.63,24.82,0000 0000 0000 0000 000000
2017-02-20 05:32:21,0.29,12.76,0.00,23.35,26.30,30.07,14.66,52.17,1020.52,2027.49,1042.94,1220.45,1385.29,600.21,597.75,24.87,0000 0000 0000 0000 000000
2017-02-20 05:37:23,0.32,12.77,0.00,23.10,26.29,30.10,14.61,52.19,1020.52,2027.68,1041.81,1219.65,1384.31,599.83,597.98,24.92,0000 0000 0000 0000 000000
2017-02-20 05:42:24,0.35,12.79,0.00,22.71,26.26,30.10,14.64,52.19,1020.52,2027.88,1040.46,1218.63,1383.14,599.72,598.62,24.97,0000 0000 0000 0000 000000
2017-02-20 05:47:25,0.24,12.81,0.00,22.29,26.23,30.08,14.74,52.27,1020.53,2027.95,1039.34,1217.87,1382.19,600.24,600.03,25.02,0000 0000 0000 0000 000000
2017-02-20 05:52:26,0.25,12.82,0.00,21.85,26.18,29.69,14.76,52.37,1020.53,2027.99,1038.32,1217.05,1381.31,600.14,600.83,25.07,0000 0000 0000 0000 000000
2017-02-20 05:57:28,0.26,12.83,0.00,21.55,26.13,29.67,14.78,52.44,1020.53,2027.99,1037.22,1216.31,1380.46,599.82,601.08,25.12,0000 0000 0000 0000 000000
2017-02-20 06:02:29,0.23,12.84,0.00,21.38,26.06,29.68,14.73,52.46,1020.55,2028.05,1036.12,1215.74,1379.70,599.68,601.29,25.17,0000 0000 0000 0000 000000
2017-02-20 06:07:30,0.32,12.86,0.00,21.28,25.99,29.65,14.82,52.41,1020.54,2028.57,1035.15,1215.03,1378.86,599.66,601.46,25.22,0000 0000 0000 0000 000000
2017-02-20 06:12:31,0.27,12.87,0.00,21.12,25.91,29.58,14.72,52.45,1020.56,2028.98,1034.18,1214.55,1378.03,599.94,602.10,25.27,0000 0000 0000 0000 000000
2017-02-20 06:17:33,0.21,12.89,0.00,21.00,25.83,29.46,14.71,52.40,1020.55,2028.99,1033.11,1213.93,1377.20,599.67,602.08,25.32,0000 0000 0000 0000 000000
2017-02-20 06:22:34,0.34,12.90,0.00,20.98,25.74,29.34,14.84,52.39,1020.68,2029.26,1031.96,1213.09,1376.37,600.57,603.05,25.37,0000 0000 0000 0000 000000
2017-02-20 06:27:36,0.39,12.92,0.00,21.00,25.66,29.17,14.84,52.52,1020.60,2029.94,1030.82,1212.36,1375.55,600.01,602.57,25.42,0000 0000 0000 0000 000000
2017-02-20 06:32:37,0.32,12.93,0.00,21.03,25.57,29.03,14.75,52.48,1020.69,2030.00,1029.60,1211.52,1374.50,600.28,602.72,25.47,0000 0000 0000 0000 000000
2017-02-20 06:37:38,0.33,12.95,0.00,21.06,25.49,28.87,14.81,52.48,1020.84,2030.13,1028.29,1210.57,1373.44,600.19,602.65,25.52,0000 0000 0000 0000 000000
2017-02-20 06:42:39,0.41,12.97,0.00,21.12,25.41,28.81,14.81,52.53,1020.99,2030.84,1026.94,1209.71,1372.37,599.99,602.33,25.57,0000 0000 0000 0000 000000
2017-02-20 06:47:41,0.30,12.99,0.00,21.17,25.34,28.79,14.71,52.50,1021.01,2030.99,1025.71,1208.83,1371.42,599.79,602.16,25.62,0000 0000 0000 0000 000000
2017-02-20 06:52:42,0.31,13.00,0.00,21.23,25.27,28.69,14.81,52.49,1021.01,2031.08,1024.43,1207.95,1370.38,600.12,602.31,25.67,0000 0000 0000 0000 000000
2017-02-20 06:57:43,0.41,13.03,0.00,21.27,25.22,28.66,14.82,52.52,1021.01,2031.72,1023.14,1207.01,1369.30,599.96,601.99,25.72,0000 0000 0000 0000 000000
2017-02-20 07:02:45,0.30,13.04,0.00,21.31,25.16,28.62,14.73,52.50,1021.01,2031.98,1022.00,1206.08,1368.26,599.80,601.91,25.77,0000 0000 0000 0000 000000
2017-02-20 07:07:46,0.30,13.06,0.00,21.36,25.11,28.57,14.73,52.42,1021.01,2031.99,1020.86,1205.25,1367.30,600.01,602.11,25.82,0000 0000 0000 0000 000000
2017-02-20 07:12:47,0.28,13.07,0.00,21.39,25.07,28.55,14.77,52.38,1021.02,2032.00,1019.79,1204.42,1366.35,600.05,601.90,25.87,0000 0000 0000 0000 000000
2017-02-20 07:17:48,0.33,13.08,0.00,21.45,25.03,28.57,14.69,52.22,1021.07,2032.04,1018.56,1203.52,1365.28,600.01,601.82,25.92,0000 0000 0000 0000 000000
2017-02-20 07:22:49,0.32,13.10,0.00,21.50,25.00,28.62,14.72,52.33,1021.22,2032.28,1017.37,1202.71,1364.33,600.06,601.85,25.97,0000 0000 0000 0000 000000
2017-02-20 07:27:50,0.33,13.12,0.00,21.54,24.97,28.70,14.68,52.35,1021.48,2032.77,1016.17,1201.87,1363.33,599.89,601.71,26.02,0000 0000 0000 0000 000000
2017-02-20 07:32:52,0.29,13.14,0.00,21.56,24.96,28.76,14.81,52.35,1021.50,2032.96,1015.03,1201.01,1362.38,600.21,602.05,26.07,0000 0000 0000 0000 000000
2017-02-20 07:37:53,0.30,13.15,0.00,21.57,24.95,28.75,14.82,52.21,1021.50,2032.97,1013.86,1200.11,1361.37,600.33,602.11,26.12,0000 0000 0000 0000 000000
2017-02-20 07:42:55,0.30,13.17,0.00,21.58,24.93,28.80,14.71,52.19,1021.50,2032.99,1012.75,1199.31,1360.45,600.11,601.88,26.17,0000 0000 0000 0000 000000
2017-02-20 07:47:56,0.29,13.18,0.00,21.64,24.92,28.83,14.77,52.26,1021.50,2032.99,1011.69,1198.46,1359.48,599.97,601.64,26.22,0000 0000 0000 0000 000000
2017-02-20 07:52:57,0.28,13.19,0.00,21.67,24.92,28.90,14.68,52.17,1021.53,2032.99,1010.61,1197.65,1358.51,600.06,601.66,26.27,0000 0000 0000 0000 000000
2017-02-20 07:57:59,0.23,13.21,0.00,21.67,24.92,28.94,14.69,52.22,1021.69,2032.99,1009.58,1196.86,1357.61,599.94,601.53,26.32,0000 0000 0000 0000 000000
2017-02-20 08:03:00,0.28,13.22,0.00,21.71,24.92,28.99,14.66,52.18,1021.81,2032.99,1008.44,1195.98,1356.59,600.10,601.82,26.37,0000 0000 0000 0000 000000
2017-02-20 08:08:01,0.29,13.24,0.00,21.71,24.92,29.02,14.68,52.15,1021.95,2032.99,1007.38,1195.04,1355.53,599.81,601.60,26.42,0000 0000 0000 0000 000000
2017-02-20 08:13:02,0.30,13.25,0.00,21.74,24.92,29.06,14.76,52.17,1021.98,2033.00,1006.23,1194.08,1354.40,599.78,601.57,26.47,0000 0000 0000 0000 000000
2017-02-20 08:18:04,0.34,13.27,0.00,21.79,24.94,29.08,14.77,52.17,1021.99,2033.00,1004.83,1193.08,1353.21,600.06,601.68,26.52,0000 0000 0000 0000 000000
2017-02-20 08:23:05,0.32,13.29,0.00,21.78,24.95,29.12,14.73,52.23,1021.99,2032.99,1003.59,1192.10,1352.13,599.80,601.54,26.57,0000 0000 0000 0000 000000
2017-02-20 08:28:07,0.30,13.30,0.00,21.81,24.95,29.12,14.76,52.23,1021.99,2032.99,1002.39,1191.15,1351.06,599.51,601.09,26.62,0000 0000 0000 0000 000000
2017-02-20 08:33:08,0.30,13.32,0.00,21.83,24.97,29.16,14.67,52.22,1021.99,2032.97,1001.22,1190.21,1349.93,599.65,601.14,26.67,0000 0000 0000 0000 000000
2017-02-20 08:38:09,0.35,13.33,0.00,21.83,24.97,29.18,14.72,52.17,1021.99,2032.98,999.92,1189.22,1348.74,599.99,601.44,26.72,0000 0000 0000 0000 000000
2017-02-20 08:43:11,0.36,13.35,0.00,21.86,24.98,29.20,14.73,52.13,1021.99,2032.97,998.58,1188.14,1347.56,600.12,601.72,26.77,0000 0000 0000 0000 000000
2017-02-20 08:48:12,0.33,13.37,0.00,21.88,25.00,29.22,14.72,52.17,1021.99,2032.96,997.13,1187.02,1346.32,599.84,601.35,26.82,0000 0000 0000 0000 000000
2017-02-20 08:53:13,0.35,13.39,0.00,21.89,25.02,29.25,14.75,52.21,1022.00,2032.91,995.77,1185.93,1345.05,599.70,601.14,26.87,0000 0000 0000 0000 000000
2017-02-20 08:58:15,0.38,13.40,0.00,21.90,25.02,29.26,14.73,52.17,1022.01,2032.82,994.43,1184.82,1343.78,600.07,601.48,26.92,0000 0000 0000 0000 000000
2017-02-20 09:03:16,0.38,13.42,0.00,21.89,25.05,29.28,14.72,52.17,1022.03,2032.71,992.91,1183.68,1342.66,599.99,601.46,26.97,0000 0000 0000 0000 000000
2017-02-20 09:08:17,0.31,13.44,0.00,21.90,25.06,29.29,14.76,52.19,1022.03,2032.36,991.52,1182.53,1341.40,600.08,601.52,27.02,0000 0000 0000 0000 000000
2017-02-20 09:13:18,0.34,13.46,0.00,21.93,25.07,29.31,14.68,52.20,1022.14,2032.12,989.93,1181.36,1340.00,599.43,600.75,27.07,0000 0000 0000 0000 000000
2017-02-20 09:18:20,0.40,13.48,0.00,21.93,25.09,29.34,14.67,52.24,1022.39,2032.03,988.35,1180.07,1338.59,599.41,601.02,27.12,0000 0000 0000 0000 000000
2017-02-20 09:23:21,0.45,13.50,0.00,21.94,25.10,29.37,14.74,52.26,1022.47,2032.03,986.73,1178.80,1337.22,600.40,602.10,27.17,0000 0000 0000 0000 000000
2017-02-20 09:28:23,0.41,13.52,0.00,21.96,25.12,29.36,14.69,52.16,1022.48,2032.02,985.17,1177.53,1335.71,599.89,601.48,27.22,0000 0000 0000 0000 000000
2017-02-20 09:33:24,0.41,13.54,0.00,21.96,25.14,29.38,14.69,52.20,1022.48,2032.00,983.61,1176.29,1334.22,599.93,601.51,27.27,0000 0000 0000 0000 000000
2017-02-20 09:38:26,0.43,13.56,0.00,21.99,25.15,29.40,14.76,52.16,1022.48,2032.00,981.96,1174.98,1332.74,600.13,601.61,27.32,0000 0000 0000 0000 000000
2017-02-20 09:43:27,0.42,13.58,0.00,22.00,25.17,29.43,14.74,52.17,1022.48,2032.00,980.43,1173.73,1331.39,600.07,601.58,27.38,0000 0000 0000 0000 000000
2017-02-20 09:48:28,0.43,13.60,0.00,21.96,25.19,29.42,14.75,52.17,1022.48,2032.00,978.81,1172.54,1329.93,600.05,601.58,27.43,0000 0000 0000 0000 000000
2017-02-20 09:53:29,0.39,13.63,0.00,21.97,25.20,29.46,14.75,52.21,1022.49,2031.99,977.26,1171.30,1328.56,599.96,601.64,27.48,0000 0000 0000 0000 000000
2017-02-20 09:58:30,0.41,13.65,0.00,21.98,25.21,29.46,14.75,52.20,1022.49,2031.98,975.68,1170.03,1327.12,600.04,601.68,27.53,0000 0000 0000 0000 000000
2017-02-20 10:03:31,0.42,13.67,0.00,21.94,25.22,29.48,14.71,52.24,1022.50,2031.98,974.11,1168.82,1325.70,599.74,601.45,27.58,0000 0000 0000 0000 000000
2017-02-20 10:08:33,0.44,13.69,0.00,21.95,25.24,29.48,14.73,52.20,1022.53,2031.97,972.60,1167.62,1324.32,600.00,601.63,27.63,0000 0000 0000 0000 000000
2017-02-20 10:13:34,0.38,13.71,0.00,21.97,25.25,29.49,14.72,52.17,1022.58,2031.94,971.09,1166.44,1322.90,599.91,601.62,27.68,0000 0000 0000 0000 000000
2017-02-20 10:18:36,0.41,13.73,0.00,21.97,25.27,29.50,14.76,52.35,1022.69,2031.86,969.56,1165.23,1321.54,599.97,601.54,27.73,0000 0000 0000 0000 000000
2017-02-20 10:23:37,0.34,13.75,0.00,21.97,25.27,29.49,14.76,52.31,1022.72,2031.77,968.03,1164.06,1320.24,600.13,601.84,27.78,0000 0000 0000 0000 000000
2017-02-20 10:28:38,0.42,13.77,0.00,21.98,25.28,29.53,14.75,52.23,1022.85,2031.70,966.53,1162.89,1318.85,600.05,601.82,27.83,0000 0000 0000 0000 000000
2017-02-20 10:33:39,0.36,13.79,0.00,21.98,25.30,29.52,14.80,52.26,1022.95,2031.44,965.06,1161.74,1317.55,600.25,602.04,27.88,0000 0000 0000 0000 000000
2017-02-20 10:38:41,0.43,13.81,0.00,21.99,25.30,29.52,14.71,52.19,1022.96,2031.40,963.53,1160.58,1316.23,599.84,601.72,27.93,0000 0000 0000 0000 000000
2017-02-20 10:43:42,0.35,13.83,0.00,21.97,25.32,29.51,14.75,52.33,1022.96,2031.17,961.91,1159.45,1314.84,599.85,601.74,27.98,0000 0000 0000 0000 000000
2017-02-20 10:48:43,0.39,13.85,0.00,21.95,25.32,29.51,14.73,52.33,1022.96,2031.12,960.53,1158.30,1313.55,599.98,601.88,28.03,0000 0000 0000 0000 000000
2017-02-20 10:53:45,0.33,13.87,0.00,21.93,25.32,29.52,14.79,52.37,1022.96,2031.05,959.18,1157.17,1312.25,600.09,601.89,28.08,0000 0000 0000 0000 000000
2017-02-20 10:58:46,0.43,13.89,0.00,21.93,25.33,29.49,14.78,52.39,1022.96,2031.05,957.72,1155.98,1310.88,600.04,602.02,28.13,0000 0000 0000 0000 000000
2017-02-20 11:03:48,0.38,13.91,0.00,21.93,25.35,29.50,14.78,52.45,1022.96,2031.06,956.29,1154.84,1309.61,599.62,601.53,28.18,0000 0000 0000 0000 000000
2017-02-20 11:08:49,0.44,13.93,0.00,21.92,25.35,29.51,14.79,52.47,1022.96,2031.02,954.70,1153.67,1308.27,600.04,602.00,28.23,0000 0000 0000 0000 000000
2017-02-20 11:13:50,0.39,13.95,0.00,21.89,25.35,29.51,14.70,52.42,1022.96,2031.02,953.17,1152.55,1306.89,599.54,601.61,28.28,0000 0000 0000 0000 000000
2017-02-20 11:18:51,0.42,13.97,0.00,21.91,25.36,29.49,14.78,52.45,1022.96,2031.04,951.71,1151.37,1305.61,599.94,601.90,28.33,0000 0000 0000 0000 000000
2017-02-20 11:23:52,0.38,13.99,0.00,21.93,25.37,29.50,14.74,52.46,1022.96,2031.02,950.20,1150.36,1304.32,600.07,602.01,28.38,0000 0000 0000 0000 000000
2017-02-20 11:28:54,0.43,14.01,0.00,21.90,25.37,29.49,14.80,52.51,1022.98,2031.01,948.65,1149.13,1302.88,600.16,602.23,28.43,0000 0000 0000 0000 000000
2017-02-20 11:33:55,0.44,14.03,0.00,21.91,25.37,29.47,14.75,52.41,1023.00,2031.01,947.07,1147.85,1301.48,600.23,602.12,28.48,0000 0000 0000 0000 000000
2017-02-20 11:38:57,0.42,14.05,0.00,21.91,25.38,29.49,14.82,52.38,1023.02,2031.01,945.61,1146.66,1300.02,600.17,602.19,28.53,0000 0000 0000 0000 000000
2017-02-20 11:43:58,0.43,14.08,0.00,21.88,25.39,29.48,14.70,52.45,1023.17,2031.00,944.05,1145.46,1298.66,599.94,602.06,28.58,0000 0000 0000 0000 000000
2017-02-20 11:48:59,0.41,14.10,0.00,21.87,25.40,29.46,14.71,52.45,1023.41,2031.00,942.53,1144.24,1297.33,599.91,602.17,28.63,0000 0000 0000 0000 000000
2017-02-20 11:54:01,0.42,14.12,0.00,21.87,25.40,29.46,14.76,52.53,1023.45,2031.00,940.97,1143.06,1295.90,599.90,602.30,28.68,0000 0000 0000 0000 000000
2017-02-20 11:59:02,0.55,14.14,0.00,21.85,25.40,29.45,14.81,52.44,1023.45,2031.00,939.24,1141.60,1294.35,599.89,602.30,28.73,0000 0000 0000 0000 000000
2017-02-20 12:04:03,0.61,14.17,0.00,21.88,25.40,29.47,14.76,52.56,1023.45,2031.00,937.05,1139.89,1292.40,600.16,602.49,28.78,0000 0000 0000 0000 000000
2017-02-20 12:09:04,0.61,14.20,0.00,21.87,25.40,29.46,14.75,52.52,1023.45,2031.00,934.85,1138.19,1290.46,600.00,602.32,28.83,0000 0000 0000 0000 000000
2017-02-20 12:14:06,0.60,14.23,0.00,21.85,25.40,29.46,14.81,52.52,1023.45,2031.00,932.74,1136.52,1288.57,600.24,602.62,28.88,0000 0000 0000 0000 000000
2017-02-20 12:19:07,0.47,14.26,0.00,21.88,25.40,29.45,14.78,52.58,1023.45,2031.00,930.99,1135.08,1286.91,599.92,602.16,28.93,0000 0000 0000 0000 000000
2017-02-20 12:24:08,0.47,14.29,0.00,21.89,25.40,29.44,14.69,52.58,1023.45,2031.00,929.41,1133.75,1285.48,599.82,602.09,28.98,0000 0000 0000 0000 000000
2017-02-20 12:29:10,0.48,14.31,0.47,21.88,25.40,29.48,14.72,52.60,1023.45,2031.00,927.80,1132.50,1283.94,600.13,602.45,29.03,0000 0000 0000 0000 000000
2017-02-20 12:34:11,0.44,14.33,1.00,21.88,25.40,29.45,14.72,52.53,1023.45,2031.00,926.07,1131.12,1282.49,599.86,602.20,29.08,0000 0000 0000 0000 000000
2017-02-20 12:39:12,0.46,14.36,1.00,21.86,25.40,29.42,14.74,52.57,1023.45,2031.00,924.56,1129.87,1281.03,600.15,602.51,29.13,0000 0000 0000 0000 000000
2017-02-20 12:44:13,0.47,14.38,1.00,21.84,25.40,29.39,14.81,52.69,1023.45,2031.00,923.01,1128.63,1279.64,600.11,602.52,29.18,0000 0000 0000 0000 000000
2017-02-20 12:49:15,0.42,14.40,1.00,21.87,25.40,29.44,14.77,52.51,1023.46,2031.00,921.46,1127.38,1278.31,600.09,602.54,29.23,0000 0000 0000 0000 000000